Simultaneous Nadir Overpasses (SNOs) Predictions

Prediction of SNOs between METOP-B and NOAA-19 Satellite Orbit:

Table of predicted SNOs for the next 14.0 days since TLE Epoch: 12/29/2012
Index Date (METOP-B) Time (METOP-B) Lat,Lon (METOP-B) SZA (METOP-B ) Date (NOAA-19) Time (NOAA-19) Lat,Lon (NOAA-19) SZA (NOAA-19 ) Distance(km) Time Diff (sec)
1 01/04/2013 22:00:36 73.17,-157.14 95.87 01/04/2013 21:59:26 73.18,-157.07 95.88 2.22 70
2 01/04/2013 22:51:18 -73.18, 10.19 84.14 01/04/2013 22:50:22 -73.18, 10.20 84.13 0.19 56
3 01/04/2013 23:41:58 73.15, 177.48 95.84 01/04/2013 23:41:30 73.14, 177.50 95.83 2.21 28
4 01/05/2013 00:32:40 -73.16, -15.19 84.16 01/05/2013 00:32:26 -73.14, -15.23 84.18 2.82 14
5 01/05/2013 01:23:21 73.09, 152.00 95.77 01/05/2013 01:23:34 73.09, 152.07 95.78 2.68 13
6
